| time (UTC) | temp C | wind direction | speed KPH | gust KPH | rain 1hr cm | rain 24hr cm | rain mn cm | humidity % | barometer mb |
| 20260508133404 | 1 | 202 | 0.0 | 0.0 | 0.00 | 0.00 | 0.00 | 76 | 1018.6 |
| 20260508132904 | 1 | 202 | 0.0 | 0.0 | 0.00 | 0.00 | 0.00 | 76 | 1018.6 |
| 20260508132404 | 0 | 202 | 0.0 | 0.0 | 0.00 | 0.00 | 0.00 | 76 | 1018.6 |
| 20260508131404 | 0 | 202 | 0.0 | 0.0 | 0.00 | 0.00 | 0.00 | 76 | 1018.6 |
| 20260508130904 | 0 | 204 | 0.0 | 0.0 | 0.00 | 0.00 | 0.00 | 75 | 1018.5 |
| 20260508130404 | 0 | 205 | 0.0 | 0.0 | 0.00 | 0.00 | 0.00 | 74 | 1018.5 |
| 20260508125911 | 0 | 204 | 0.0 | 0.0 | 0.00 | 0.00 | 0.00 | 75 | 1018.4 |
| 20260508125404 | 0 | 204 | 0.0 | 0.0 | 0.00 | 0.00 | 0.00 | 74 | 1018.3 |
| 20260508124904 | 0 | 204 | 0.0 | 0.0 | 0.00 | 0.00 | 0.00 | 74 | 1018.3 |
| 20260508124404 | 0 | 204 | 0.0 | 0.0 | 0.00 | 0.00 | 0.00 | 74 | 1018.2 |
| 20260508123904 | 0 | 204 | 0.0 | 0.0 | 0.00 | 0.00 | 0.00 | 74 | 1018.2 |
| 20260508123404 | 0 | 204 | 0.0 | 0.0 | 0.00 | 0.00 | 0.00 | 74 | 1018.2 |
| 20260508122904 | 0 | 204 | 0.0 | 0.0 | 0.00 | 0.00 | 0.00 | 74 | 1018.2 |
| 20260508122404 | 0 | 204 | 0.0 | 0.0 | 0.00 | 0.00 | 0.00 | 74 | 1018.1 |
| 20260508121904 | 0 | 204 | 0.0 | 0.0 | 0.00 | 0.00 | 0.00 | 73 | 1018.0 |
| 20260508121404 | 0 | 204 | 0.0 | 0.0 | 0.00 | 0.00 | 0.00 | 73 | 1017.9 |
| 20260508120904 | 0 | 204 | 0.0 | 0.0 | 0.00 | 0.00 | 0.00 | 73 | 1017.9 |
| 20260508120404 | 0 | 204 | 0.0 | 0.0 | 0.00 | 0.00 | 0.00 | 73 | 1017.8 |
| 20260508115904 | 0 | 204 | 0.0 | 0.0 | 0.00 | 0.00 | 0.00 | 73 | 1017.8 |
| 20260508115404 | 0 | 204 | 0.0 | 0.0 | 0.00 | 0.00 | 0.00 | 73 | 1017.8 |
| 20260508114904 | 0 | 204 | 0.0 | 0.0 | 0.00 | 0.00 | 0.00 | 73 | 1017.7 |
| 20260508114404 | 0 | 204 | 0.0 | 0.0 | 0.00 | 0.00 | 0.00 | 73 | 1017.7 |
| 20260508113404 | 0 | 204 | 0.0 | 0.0 | 0.00 | 0.00 | 0.00 | 74 | 1017.7 |
| 20260508112904 | 0 | 204 | 0.0 | 0.0 | 0.00 | 0.00 | 0.00 | 74 | 1017.6 |
| 20260508111905 | 0 | 246 | 0.0 | 0.0 | 0.00 | 0.00 | 0.00 | 73 | 1017.8 |
| 20260508111404 | 0 | 246 | 0.0 | 0.0 | 0.00 | 0.00 | 0.00 | 73 | 1017.8 |
| 20260508110904 | 0 | 246 | 0.0 | 0.0 | 0.00 | 0.00 | 0.00 | 73 | 1017.7 |
| 20260508110404 | 0 | 246 | 0.0 | 0.0 | 0.00 | 0.00 | 0.00 | 73 | 1017.8 |
| 20260508105904 | 0 | 246 | 0.0 | 0.0 | 0.00 | 0.00 | 0.00 | 73 | 1017.7 |
| 20260508105407 | 0 | 245 | 0.0 | 0.0 | 0.00 | 0.00 | 0.00 | 73 | 1017.7 |
| 20260508104904 | 0 | 245 | 0.0 | 0.0 | 0.00 | 0.00 | 0.00 | 73 | 1017.6 |
| 20260508104404 | 1 | 242 | 0.0 | 0.0 | 0.00 | 0.00 | 0.00 | 72 | 1017.6 |
| 20260508103905 | 1 | 242 | 0.0 | 0.0 | 0.00 | 0.00 | 0.00 | 72 | 1017.5 |
| 20260508102404 | 1 | 242 | 0.0 | 0.0 | 0.00 | 0.00 | 0.00 | 72 | 1017.5 |
| 20260508101904 | 1 | 242 | 0.0 | 0.0 | 0.00 | 0.00 | 0.00 | 71 | 1017.5 |
| 20260508100404 | 1 | 242 | 0.0 | 0.0 | 0.00 | 0.00 | 0.00 | 71 | 1017.4 |
| 20260508095904 | 1 | 242 | 0.0 | 0.0 | 0.00 | 0.00 | 0.00 | 70 | 1017.3 |
| 20260508095404 | 1 | 242 | 0.0 | 0.0 | 0.00 | 0.00 | 0.00 | 70 | 1017.3 |
| 20260508094904 | 1 | 242 | 0.0 | 0.0 | 0.00 | 0.00 | 0.00 | 71 | 1017.3 |
| 20260508094404 | 1 | 242 | 0.0 | 0.0 | 0.00 | 0.00 | 0.00 | 71 | 1017.2 |
| 20260508093904 | 1 | 242 | 0.0 | 0.0 | 0.00 | 0.00 | 0.00 | 70 | 1017.2 |
| 20260508092404 | 2 | 242 | 0.0 | 0.0 | 0.00 | 0.00 | 0.00 | 70 | 1017.2 |
| 20260508090904 | 2 | 242 | 0.0 | 0.0 | 0.00 | 0.00 | 0.00 | 67 | 1017.0 |
| 20260508090404 | 2 | 242 | 0.0 | 0.0 | 0.00 | 0.00 | 0.00 | 67 | 1017.1 |
| 20260508085904 | 2 | 242 | 0.0 | 0.0 | 0.00 | 0.00 | 0.00 | 67 | 1016.8 |
| 20260508085404 | 2 | 242 | 0.0 | 0.0 | 0.00 | 0.00 | 0.00 | 67 | 1016.8 |
| 20260508084904 | 2 | 242 | 0.0 | 0.0 | 0.00 | 0.00 | 0.00 | 66 | 1016.8 |
| 20260508084404 | 3 | 242 | 0.0 | 0.0 | 0.00 | 0.00 | 0.00 | 65 | 1016.8 |
| 20260508083904 | 3 | 242 | 0.0 | 0.0 | 0.00 | 0.00 | 0.00 | 65 | 1016.7 |
| 20260508083404 | 3 | 242 | 0.0 | 0.0 | 0.00 | 0.00 | 0.00 | 65 | 1016.7 |
| 20260508082904 | 3 | 242 | 0.0 | 0.0 | 0.00 | 0.00 | 0.00 | 64 | 1016.7 |
| 20260508082404 | 3 | 242 | 0.0 | 0.0 | 0.00 | 0.00 | 0.00 | 64 | 1016.7 |
| 20260508081904 | 3 | 242 | 0.0 | 0.0 | 0.00 | 0.00 | 0.00 | 64 | 1016.6 |
| 20260508080903 | 4 | 242 | 0.0 | 0.0 | 0.00 | 0.00 | 0.00 | 62 | 1016.6 |
| 20260508075904 | 5 | 242 | 0.0 | 0.0 | 0.00 | 0.00 | 0.00 | 62 | 1016.5 |
| 20260508075404 | 5 | 242 | 0.0 | 0.0 | 0.00 | 0.00 | 0.00 | 61 | 1016.5 |
| 20260508074904 | 5 | 242 | 0.0 | 0.0 | 0.00 | 0.00 | 0.00 | 61 | 1016.5 |
| 20260508074404 | 5 | 242 | 0.0 | 0.0 | 0.00 | 0.00 | 0.00 | 61 | 1016.4 |
| 20260508073905 | 5 | 242 | 0.0 | 0.0 | 0.00 | 0.00 | 0.00 | 61 | 1016.4 |
| 20260508073407 | 5 | 242 | 0.0 | 0.0 | 0.00 | 0.00 | 0.00 | 59 | 1016.4 |
| 20260508072904 | 5 | 242 | 0.0 | 0.0 | 0.00 | 0.00 | 0.00 | 57 | 1016.3 |
| 20260508072404 | 5 | 242 | 0.0 | 0.0 | 0.00 | 0.00 | 0.00 | 57 | 1016.3 |
| 20260508071904 | 6 | 242 | 0.0 | 0.0 | 0.00 | 0.00 | 0.00 | 57 | 1016.3 |
| 20260508070904 | 6 | 242 | 0.0 | 0.0 | 0.00 | 0.00 | 0.00 | 56 | 1016.3 |
| 20260508070404 | 6 | 242 | 0.0 | 0.0 | 0.00 | 0.00 | 0.00 | 56 | 1016.3 |
| 20260508065905 | 6 | 242 | 0.0 | 0.0 | 0.00 | 0.00 | 0.00 | 56 | 1016.3 |
| 20260508065404 | 7 | 242 | 0.0 | 0.0 | 0.00 | 0.00 | 0.00 | 57 | 1016.3 |
| 20260508064903 | 7 | 242 | 0.0 | 0.0 | 0.00 | 0.00 | 0.00 | 56 | 1016.3 |
| 20260508064404 | 7 | 242 | 0.0 | 0.0 | 0.00 | 0.00 | 0.00 | 56 | 1016.2 |
| 20260508063904 | 7 | 242 | 0.0 | 0.0 | 0.00 | 0.00 | 0.00 | 54 | 1016.2 |
| 20260508063404 | 7 | 242 | 0.0 | 0.0 | 0.00 | 0.00 | 0.00 | 53 | 1016.2 |
| 20260508062903 | 7 | 242 | 0.0 | 0.0 | 0.00 | 0.00 | 0.00 | 53 | 1016.2 |
| 20260508062404 | 7 | 242 | 0.0 | 0.0 | 0.00 | 0.00 | 0.00 | 53 | 1016.2 |
| 20260508061404 | 8 | 242 | 0.0 | 0.0 | 0.00 | 0.00 | 0.00 | 53 | 1016.1 |
| 20260508060904 | 8 | 242 | 0.0 | 0.0 | 0.00 | 0.00 | 0.00 | 52 | 1016.1 |
| 20260508060404 | 8 | 242 | 0.0 | 0.0 | 0.00 | 0.00 | 0.00 | 52 | 1016.0 |
| 20260508055905 | 8 | 242 | 0.0 | 0.0 | 0.00 | 0.00 | 0.00 | 52 | 1016.0 |
| 20260508055404 | 8 | 243 | 0.0 | 0.0 | 0.00 | 0.00 | 0.00 | 52 | 1016.1 |
| 20260508054904 | 8 | 243 | 0.0 | 0.0 | 0.00 | 0.00 | 0.00 | 52 | 1016.1 |
| 20260508053404 | 8 | 243 | 0.0 | 0.0 | 0.00 | 0.00 | 0.00 | 51 | 1016.0 |
| 20260508052904 | 8 | 244 | 0.0 | 0.0 | 0.00 | 0.00 | 0.00 | 51 | 1015.9 |
| 20260508052404 | 9 | 243 | 0.0 | 0.0 | 0.00 | 0.00 | 0.00 | 51 | 1016.0 |
| 20260508051405 | 9 | 278 | 0.0 | 0.0 | 0.00 | 0.00 | 0.00 | 50 | 1016.0 |
| 20260508050904 | 9 | 278 | 0.0 | 0.0 | 0.00 | 0.00 | 0.00 | 50 | 1016.0 |
| 20260508045904 | 10 | 278 | 0.0 | 0.0 | 0.00 | 0.00 | 0.00 | 49 | 1015.9 |
| 20260508045404 | 10 | 278 | 0.0 | 0.0 | 0.00 | 0.00 | 0.00 | 49 | 1016.0 |
| 20260508044904 | 10 | 278 | 0.0 | 0.0 | 0.00 | 0.00 | 0.00 | 49 | 1016.0 |
| 20260508044404 | 10 | 278 | 0.0 | 0.0 | 0.00 | 0.00 | 0.00 | 48 | 1016.0 |
| 20260508043903 | 10 | 278 | 0.0 | 0.0 | 0.00 | 0.00 | 0.00 | 48 | 1016.0 |
| 20260508043405 | 10 | 278 | 0.0 | 0.0 | 0.00 | 0.00 | 0.00 | 48 | 1016.1 |
| 20260508042904 | 10 | 278 | 0.0 | 0.0 | 0.00 | 0.00 | 0.00 | 48 | 1016.0 |
| 20260508042404 | 10 | 278 | 0.0 | 0.0 | 0.00 | 0.00 | 0.00 | 48 | 1016.0 |
| 20260508041904 | 10 | 278 | 0.0 | 0.0 | 0.00 | 0.00 | 0.00 | 47 | 1016.0 |
| 20260508041403 | 10 | 278 | 0.0 | 0.0 | 0.00 | 0.00 | 0.00 | 46 | 1015.9 |
| 20260508040404 | 10 | 278 | 0.0 | 0.0 | 0.00 | 0.00 | 0.00 | 46 | 1015.9 |
| 20260508035404 | 11 | 279 | 0.0 | 0.0 | 0.00 | 0.00 | 0.00 | 47 | 1015.9 |
| 20260508034905 | 11 | 279 | 0.0 | 0.0 | 0.00 | 0.00 | 0.00 | 47 | 1015.8 |
| 20260508034404 | 11 | 279 | 0.0 | 0.0 | 0.00 | 0.00 | 0.00 | 45 | 1015.8 |
| 20260508033404 | 11 | 279 | 0.0 | 0.0 | 0.00 | 0.00 | 0.00 | 43 | 1015.6 |
| 20260508032904 | 12 | 279 | 0.0 | 0.0 | 0.00 | 0.00 | 0.00 | 43 | 1015.6 |
| 20260508032404 | 12 | 279 | 0.0 | 0.0 | 0.00 | 0.00 | 0.00 | 43 | 1015.6 |
| 20260508031404 | 12 | 279 | 0.0 | 0.0 | 0.00 | 0.00 | 0.00 | 41 | 1015.4 |
| 20260508030904 | 12 | 279 | 0.0 | 0.0 | 0.00 | 0.00 | 0.00 | 40 | 1015.4 |
| 20260508030404 | 12 | 279 | 0.0 | 0.0 | 0.00 | 0.00 | 0.00 | 39 | 1015.4 |
| 20260508025904 | 12 | 279 | 0.0 | 0.0 | 0.00 | 0.00 | 0.00 | 39 | 1015.3 |
| 20260508025403 | 13 | 279 | 0.0 | 0.0 | 0.00 | 0.00 | 0.00 | 38 | 1015.2 |
| 20260508024904 | 13 | 279 | 0.0 | 0.0 | 0.00 | 0.00 | 0.00 | 39 | 1015.2 |
| 20260508024404 | 13 | 279 | 0.0 | 0.0 | 0.00 | 0.00 | 0.00 | 38 | 1015.2 |
| 20260508023404 | 13 | 279 | 0.0 | 0.0 | 0.00 | 0.00 | 0.00 | 37 | 1015.1 |
| 20260508022904 | 13 | 279 | 0.0 | 0.0 | 0.00 | 0.00 | 0.00 | 35 | 1015.0 |
| 20260508022404 | 13 | 262 | 0.0 | 0.0 | 0.00 | 0.00 | 0.00 | 40 | 1014.9 |
| 20260508021904 | 13 | 262 | 0.0 | 0.0 | 0.00 | 0.00 | 0.00 | 36 | 1014.8 |
| 20260508021404 | 14 | 262 | 0.0 | 0.0 | 0.00 | 0.00 | 0.00 | 34 | 1014.7 |
| 20260508020404 | 14 | 262 | 0.0 | 0.0 | 0.00 | 0.00 | 0.00 | 32 | 1014.7 |
| 20260508015904 | 15 | 262 | 0.0 | 0.0 | 0.00 | 0.00 | 0.00 | 34 | 1014.6 |
| 20260508015403 | 15 | 262 | 0.0 | 0.0 | 0.00 | 0.00 | 0.00 | 29 | 1014.7 |
| 20260508014904 | 15 | 262 | 0.0 | 0.0 | 0.00 | 0.00 | 0.00 | 29 | 1014.7 |
| 20260508014404 | 15 | 262 | 0.0 | 0.0 | 0.00 | 0.00 | 0.00 | 30 | 1014.5 |
| 20260508013903 | 15 | 262 | 0.0 | 0.0 | 0.00 | 0.00 | 0.00 | 29 | 1014.6 |
| 20260508013403 | 15 | 262 | 0.0 | 0.0 | 0.00 | 0.00 | 0.00 | 27 | 1014.6 |
| 20260508012903 | 15 | 261 | 0.0 | 0.0 | 0.00 | 0.00 | 0.00 | 27 | 1014.5 |
| 20260508010904 | 16 | 255 | 0.0 | 0.0 | 0.00 | 0.00 | 0.00 | 25 | 1014.5 |
| 20260508010403 | 16 | 281 | 0.0 | 0.0 | 0.00 | 0.00 | 0.00 | 24 | 1014.5 |
| 20260508005404 | 17 | 274 | 0.0 | 0.0 | 0.00 | 0.00 | 0.00 | 22 | 1014.5 |
| 20260508004404 | 17 | 254 | 1.6 | 11.3 | 0.00 | 0.00 | 0.00 | 21 | 1014.4 |
| 20260508003904 | 17 | 309 | 0.0 | 16.1 | 0.00 | 0.00 | 0.00 | 19 | 1014.4 |
| 20260508003404 | 18 | 267 | 1.6 | 19.3 | 0.00 | 0.00 | 0.00 | 22 | 1014.5 |
| 20260508002904 | 18 | 322 | 3.2 | 14.5 | 0.00 | 0.00 | 0.00 | 20 | 1014.6 |
| 20260508002404 | 18 | 283 | 1.6 | 12.9 | 0.00 | 0.00 | 0.00 | 20 | 1014.5 |
| 20260508001904 | 19 | 343 | 4.8 | 19.3 | 0.00 | 0.00 | 0.00 | 20 | 1014.3 |
| 20260508001404 | 19 | 234 | 4.8 | 24.1 | 0.00 | 0.00 | 0.00 | 15 | 1014.3 |
| 20260508000904 | 19 | 234 | 6.4 | 19.3 | 0.00 | 0.00 | 0.00 | 15 | 1014.2 |
| 20260507235904 | 19 | 222 | 8.0 | 20.9 | 0.00 | 0.00 | 0.00 | 17 | 1014.0 |
| 20260507235404 | 19 | 205 | 11.3 | 25.7 | 0.00 | 0.00 | 0.00 | 15 | 1013.9 |
| 20260507234905 | 19 | 233 | 9.7 | 24.1 | 0.00 | 0.00 | 0.00 | 15 | 1014.0 |
| 20260507234404 | 19 | 209 | 4.8 | 14.5 | 0.00 | 0.00 | 0.00 | 15 | 1014.0 |
| 20260507233404 | 19 | 206 | 12.9 | 27.4 | 0.00 | 0.00 | 0.00 | 16 | 1013.9 |
| 20260507232904 | 19 | 214 | 9.7 | 22.5 | 0.00 | 0.00 | 0.00 | 15 | 1013.9 |
| 20260507232404 | 19 | 203 | 1.6 | 19.3 | 0.00 | 0.00 | 0.00 | 16 | 1013.9 |
| 20260507231904 | 19 | 208 | 9.7 | 32.2 | 0.00 | 0.00 | 0.00 | 15 | 1013.9 |
| 20260507231404 | 19 | 208 | 9.7 | 32.2 | 0.00 | 0.00 | 0.00 | 15 | 1014.0 |
| 20260507230904 | 19 | 211 | 11.3 | 22.5 | 0.00 | 0.00 | 0.00 | 15 | 1013.8 |
| 20260507230404 | 19 | 199 | 4.8 | 20.9 | 0.00 | 0.00 | 0.00 | 15 | 1013.8 |
| 20260507225904 | 19 | 188 | 11.3 | 29.0 | 0.00 | 0.00 | 0.00 | 16 | 1013.9 |
| 20260507224903 | 19 | 216 | 11.3 | 24.1 | 0.00 | 0.00 | 0.00 | 17 | 1014.0 |
| 20260507224404 | 19 | 202 | 12.9 | 25.7 | 0.00 | 0.00 | 0.00 | 17 | 1013.9 |
| 20260507223904 | 18 | 204 | 9.7 | 24.1 | 0.00 | 0.00 | 0.00 | 17 | 1014.0 |
| 20260507223404 | 18 | 204 | 11.3 | 27.4 | 0.00 | 0.00 | 0.00 | 19 | 1014.1 |
| 20260507222904 | 18 | 208 | 16.1 | 27.4 | 0.00 | 0.00 | 0.00 | 18 | 1014.2 |
| 20260507222404 | 19 | 207 | 11.3 | 24.1 | 0.00 | 0.00 | 0.00 | 20 | 1014.2 |
| 20260507221904 | 18 | 201 | 6.4 | 19.3 | 0.00 | 0.00 | 0.00 | 21 | 1014.3 |
| 20260507221404 | 18 | 225 | 8.0 | 19.3 | 0.00 | 0.00 | 0.00 | 23 | 1014.4 |
| 20260507220904 | 18 | 209 | 3.2 | 4.8 | 0.00 | 0.00 | 0.00 | 24 | 1014.4 |
| 20260507220404 | 17 | 186 | 1.6 | 4.8 | 0.00 | 0.00 | 0.00 | 25 | 1014.5 |
| 20260507215904 | 17 | 206 | 0.0 | 12.9 | 0.00 | 0.00 | 0.00 | 25 | 1014.6 |
| 20260507215404 | 17 | 201 | 3.2 | 9.7 | 0.00 | 0.00 | 0.00 | 27 | 1014.6 |
| 20260507214404 | 17 | 233 | 0.0 | 11.3 | 0.00 | 0.00 | 0.00 | 25 | 1014.8 |
| 20260507213904 | 17 | 219 | 0.0 | 12.9 | 0.00 | 0.00 | 0.00 | 29 | 1014.8 |
| 20260507213404 | 17 | 210 | 0.0 | 4.8 | 0.00 | 0.00 | 0.00 | 27 | 1014.9 |
| 20260507212905 | 16 | 192 | 0.0 | 0.0 | 0.00 | 0.00 | 0.00 | 27 | 1014.8 |
| 20260507212404 | 16 | 201 | 0.0 | 4.8 | 0.00 | 0.00 | 0.00 | 31 | 1014.9 |
| 20260507211905 | 16 | 157 | 0.0 | 0.0 | 0.00 | 0.00 | 0.00 | 32 | 1015.0 |
| 20260507211404 | 16 | 157 | 0.0 | 0.0 | 0.00 | 0.00 | 0.00 | 28 | 1015.2 |
| 20260507210405 | 16 | 211 | 4.8 | 11.3 | 0.00 | 0.00 | 0.00 | 29 | 1015.4 |
| 20260507205904 | 16 | 240 | 1.6 | 4.8 | 0.00 | 0.00 | 0.00 | 28 | 1015.4 |
| 20260507204404 | 16 | 206 | 3.2 | 20.9 | 0.00 | 0.00 | 0.00 | 27 | 1015.4 |
| 20260507203904 | 16 | 182 | 4.8 | 27.4 | 0.00 | 0.00 | 0.00 | 28 | 1015.4 |
| 20260507203404 | 16 | 208 | 16.1 | 37.0 | 0.00 | 0.00 | 0.00 | 28 | 1015.5 |
| 20260507202403 | 16 | 216 | 9.7 | 32.2 | 0.00 | 0.00 | 0.00 | 26 | 1015.4 |
| 20260507201904 | 17 | 213 | 16.1 | 25.7 | 0.00 | 0.00 | 0.00 | 24 | 1015.2 |
| 20260507200904 | 17 | 207 | 3.2 | 9.7 | 0.00 | 0.00 | 0.00 | 21 | 1015.1 |
| 20260507200404 | 17 | 189 | 3.2 | 8.0 | 0.00 | 0.00 | 0.00 | 23 | 1015.1 |
| 20260507195904 | 17 | 229 | 0.0 | 8.0 | 0.00 | 0.00 | 0.00 | 23 | 1015.2 |
| 20260507194904 | 17 | 203 | 1.6 | 8.0 | 0.00 | 0.00 | 0.00 | 23 | 1015.3 |
| 20260507193904 | 17 | 235 | 4.8 | 20.9 | 0.00 | 0.00 | 0.00 | 24 | 1015.3 |
| 20260507192919 | 17 | 234 | 1.6 | 19.3 | 0.00 | 0.00 | 0.00 | 27 | 1015.4 |
| 20260507192404 | 17 | 220 | 6.4 | 20.9 | 0.00 | 0.00 | 0.00 | 25 | 1015.5 |
| 20260507191904 | 17 | 217 | 3.2 | 12.9 | 0.00 | 0.00 | 0.00 | 25 | 1015.6 |
| 20260507191403 | 17 | 216 | 11.3 | 19.3 | 0.00 | 0.00 | 0.00 | 25 | 1015.6 |
| 20260507190404 | 16 | 215 | 4.8 | 20.9 | 0.00 | 0.00 | 0.00 | 29 | 1015.6 |
| 20260507185904 | 16 | 229 | 11.3 | 32.2 | 0.00 | 0.00 | 0.00 | 27 | 1015.7 |
| 20260507184904 | 16 | 225 | 4.8 | 14.5 | 0.00 | 0.00 | 0.00 | 27 | 1015.8 |
| 20260507184404 | 16 | 215 | 1.6 | 9.7 | 0.00 | 0.00 | 0.00 | 26 | 1015.9 |
| 20260507183904 | 16 | 223 | 4.8 | 19.3 | 0.00 | 0.00 | 0.00 | 26 | 1015.9 |
| 20260507183404 | 16 | 247 | 3.2 | 19.3 | 0.00 | 0.00 | 0.00 | 27 | 1015.8 |
| 20260507182903 | 16 | 233 | 0.0 | 4.8 | 0.00 | 0.00 | 0.00 | 26 | 1016.0 |
| 20260507182404 | 16 | 219 | 1.6 | 20.9 | 0.00 | 0.00 | 0.00 | 27 | 1016.0 |
| 20260507181905 | 16 | 225 | 4.8 | 19.3 | 0.00 | 0.00 | 0.00 | 26 | 1016.1 |
| 20260507181404 | 16 | 236 | 4.8 | 16.1 | 0.00 | 0.00 | 0.00 | 28 | 1016.1 |
| 20260507180904 | 16 | 235 | 4.8 | 19.3 | 0.00 | 0.00 | 0.00 | 28 | 1016.1 |
| 20260507180404 | 16 | 227 | 3.2 | 11.3 | 0.00 | 0.00 | 0.00 | 28 | 1016.2 |
| 20260507174403 | 15 | 209 | 4.8 | 16.1 | 0.00 | 0.00 | 0.00 | 28 | 1016.4 |
| 20260507173904 | 15 | 222 | 1.6 | 12.9 | 0.00 | 0.00 | 0.00 | 29 | 1016.4 |
| 20260507173404 | 15 | 205 | 4.8 | 12.9 | 0.00 | 0.00 | 0.00 | 30 | 1016.5 |
| 20260507172904 | 15 | 231 | 1.6 | 14.5 | 0.00 | 0.00 | 0.00 | 30 | 1016.5 |
| 20260507172404 | 15 | 215 | 3.2 | 14.5 | 0.00 | 0.00 | 0.00 | 29 | 1016.5 |
| 20260507171904 | 14 | 225 | 3.2 | 12.9 | 0.00 | 0.00 | 0.00 | 29 | 1016.5 |
| 20260507171407 | 15 | 223 | 1.6 | 8.0 | 0.00 | 0.00 | 0.00 | 29 | 1016.6 |
| 20260507170404 | 14 | 215 | 6.4 | 20.9 | 0.00 | 0.00 | 0.00 | 30 | 1016.6 |
| 20260507165904 | 14 | 204 | 8.0 | 22.5 | 0.00 | 0.00 | 0.00 | 29 | 1016.6 |
| 20260507165404 | 14 | 201 | 3.2 | 19.3 | 0.00 | 0.00 | 0.00 | 31 | 1016.6 |
| 20260507163904 | 14 | 207 | 3.2 | 19.3 | 0.00 | 0.00 | 0.00 | 29 | 1016.8 |
| 20260507163404 | 14 | 214 | 3.2 | 16.1 | 0.00 | 0.00 | 0.00 | 28 | 1016.8 |
| 20260507162904 | 14 | 222 | 3.2 | 11.3 | 0.00 | 0.00 | 0.00 | 31 | 1016.8 |
| 20260507162404 | 14 | 218 | 1.6 | 19.3 | 0.00 | 0.00 | 0.00 | 30 | 1016.8 |
| 20260507161903 | 14 | 222 | 4.8 | 19.3 | 0.00 | 0.00 | 0.00 | 30 | 1016.7 |
| 20260507161404 | 14 | 222 | 1.6 | 14.5 | 0.00 | 0.00 | 0.00 | 29 | 1016.8 |
| 20260507160904 | 14 | 210 | 8.0 | 16.1 | 0.00 | 0.00 | 0.00 | 28 | 1016.8 |
| 20260507160403 | 14 | 211 | 4.8 | 14.5 | 0.00 | 0.00 | 0.00 | 29 | 1016.9 |
| 20260507155404 | 14 | 207 | 3.2 | 11.3 | 0.00 | 0.00 | 0.00 | 28 | 1016.9 |
| 20260507154404 | 14 | 210 | 4.8 | 12.9 | 0.00 | 0.00 | 0.00 | 27 | 1016.9 |
| 20260507153904 | 14 | 216 | 8.0 | 16.1 | 0.00 | 0.00 | 0.00 | 29 | 1016.9 |
| 20260507153404 | 14 | 221 | 4.8 | 12.9 | 0.00 | 0.00 | 0.00 | 29 | 1017.0 |
| 20260507152904 | 14 | 221 | 4.8 | 11.3 | 0.00 | 0.00 | 0.00 | 29 | 1017.0 |
| 20260507152404 | 14 | 230 | 6.4 | 14.5 | 0.00 | 0.00 | 0.00 | 30 | 1017.0 |
| 20260507151904 | 13 | 212 | 6.4 | 12.9 | 0.00 | 0.00 | 0.00 | 29 | 1017.1 |
| 20260507151404 | 13 | 186 | 1.6 | 14.5 | 0.00 | 0.00 | 0.00 | 31 | 1017.0 |
| 20260507150904 | 13 | 223 | 8.0 | 19.3 | 0.00 | 0.00 | 0.00 | 31 | 1017.0 |
| 20260507150405 | 13 | 219 | 9.7 | 16.1 | 0.00 | 0.00 | 0.00 | 32 | 1017.0 |
| 20260507145904 | 12 | 217 | 6.4 | 11.3 | 0.00 | 0.00 | 0.00 | 34 | 1017.0 |
| 20260507144904 | 11 | 238 | 0.0 | 0.0 | 0.00 | 0.00 | 0.00 | 38 | 1017.0 |
| 20260507144404 | 11 | 27 | 0.0 | 0.0 | 0.00 | 0.00 | 0.00 | 38 | 1017.1 |
| 20260507143904 | 11 | 15 | 0.0 | 0.0 | 0.00 | 0.00 | 0.00 | 37 | 1017.1 |
| 20260507143404 | 10 | 9 | 0.0 | 0.0 | 0.00 | 0.00 | 0.00 | 39 | 1017.0 |
| 20260507142904 | 10 | 9 | 0.0 | 0.0 | 0.00 | 0.00 | 0.00 | 40 | 1017.1 |
| 20260507142404 | 10 | 9 | 0.0 | 0.0 | 0.00 | 0.00 | 0.00 | 41 | 1017.1 |
| 20260507141904 | 9 | 9 | 0.0 | 0.0 | 0.00 | 0.00 | 0.00 | 44 | 1017.1 |
| 20260507141404 | 9 | 9 | 0.0 | 0.0 | 0.00 | 0.00 | 0.00 | 45 | 1017.1 |
| 20260507140404 | 8 | 9 | 0.0 | 0.0 | 0.00 | 0.00 | 0.00 | 48 | 1017.1 |
| 20260507135904 | 8 | 9 | 0.0 | 0.0 | 0.00 | 0.00 | 0.00 | 49 | 1017.1 |
| 20260507135404 | 7 | 9 | 0.0 | 0.0 | 0.00 | 0.00 | 0.00 | 51 | 1017.3 |
| 20260507134903 | 7 | 9 | 0.0 | 0.0 | 0.00 | 0.00 | 0.00 | 53 | 1017.3 |
| 20260507134404 | 7 | 9 | 0.0 | 0.0 | 0.00 | 0.00 | 0.00 | 55 | 1017.2 |
| 20260507133904 | 6 | 2 | 0.0 | 0.0 | 0.00 | 0.00 | 0.00 | 56 | 1017.1 |